Temperature
15 15 15 15 15 15 15 15 15 16 16 16 16 17 17 17 17 17 17 17 18 18 18 18 18 18 18 18 18 18 18 18 18 18 18 18 18 18 17 17 18 17 17
15 15 15 15 15 15 15 15 15 15 15 16 16 16 17 17 17 17 17 17 17 18 18 18 18 18 18 18 18 18 18 18 18 18 18 18 18 17 18 17 17 17 17
14 14 14 14 14 14 14 15 15 15 15 15 16 16 16 17 17 17 17 17 17 18 18 18 18 18 18 18 18 18 18 18 18 18 18 17 17 17 18 17 17 17 17
14 14 14 14 14 14 14 14 14 14 15 15 15 16 16 16 16 17 17 17 17 17 18 18 18 18 18 18 18 18 18 18 18 18 18 17 17 17 17 17 17 17 17
14 14 14 14 14 14 14 14 14 14 14 15 15 15 16 16 16 16 17 17 17 17 17 17 17 17 18 18 18 18 18 17 17 17 17 17 17 17 17 17 17 17 17
14 14 14 13 13 13 14 13 14 14 14 14 15 15 16 16 16 16 16 17 17 17 17 17 17 17 17 17 18 18 17 17 17 17 17 17 17 17 17 17 17 17 17
13 13 13 13 13 13 13 13 13 14 14 14 14 15 15 16 16 16 16 16 17 17 17 17 17 17 17 17 17 17 17 17 17 17 17 17 17 17 17 17 17 17 17
13 13 13 13 13 13 13 13 13 13 14 14 14 14 15 15 16 16 16 16 16 17 17 17 17 17 17 17 17 17 17 17 17 17 17 17 17 17 17 17 17 17 17
13 13 13 13 13 13 13 13 13 13 14 14 14 14 15 15 15 16 16 16 16 16 17 17 17 17 17 17 17 17 17 17 17 17 17 17 17 17 17 17 17 17 17
13 13 13 13 13 13 13 13 13 13 13 14 14 14 14 15 15 15 15 16 16 16 16 16 16 16 17 17 17 17 17 17 17 17 17 17 17 17 17 17 17 17 17
13 13 13 13 13 13 13 13 13 13 13 13 14 14 14 14 15 15 15 15 16 16 16 16 16 16 16 16 16 17 17 17 17 17 17 17 17 17 17 17 17 17 17
14 13 13 13 13 13 13 13 13 13 13 13 13 14 14 14 14 15 15 15 15 15 16 16 16 16 16 16 16 16 17 17 17 17 17 17 17 17 17 17 17 16 16
14 13 13 13 13 13 13 13 13 13 13 13 13 14 14 14 14 14 15 15 15 15 15 15 16 16 16 16 16 16 16 16 16 16 16 16 16 16 16 16 16 16 16
14 13 13 13 13 13 13 13 13 13 13 13 13 13 14 14 14 14 14 14 15 15 15 15 15 15 15 15 16 16 16 16 16 16 16 16 16 16 16 16 16 16 16
14 13 13 13 13 13 13 13 13 13 13 13 13 13 14 14 14 14 14 14 14 14 14 15 15 15 15 15 15 15 15 16 16 16 16 16 16 16 16 16 16 16 16
14 13 13 13 13 13 13 13 13 13 13 13 13 13 13 14 14 14 14 14 14 14 14 14 14 14 15 15 15 15 15 15 15 15 15 15 15 15 16 16 16 16 15
14 14 14 13 13 13 13 13 13 13 13 13 13 13 13 14 14 14 14 14 14 14 14 14 14 14 14 14 14 15 15 15 15 15 15 15 15 15 15 15 15 15 15
14 14 14 13 13 13 13 13 13 13 13 13 13 13 13 13 13 13 13 14 14 14 14 14 14 14 14 14 14 14 14 14 14 15 15 15 15 15 15 15 15 15 15
14 14 14 13 13 13 13 13 13 13 13 13 13 13 13 13 13 13 13 13 13 13 13 13 13 13 13 14 14 14 14 14 14 14 14 15 15 15 15 15 15 15 15
14 14 13 13 13 13 13 13 13 13 13 13 13 13 13 13 13 13 13 13 13 13 13 13 13 13 13 13 13 13 13 14 14 14 14 14 14 14 15 15 15 14 14
14 14 14 14 14 14 14 14 13 13 13 13 13 13 13 13 13 13 13 13 13 13 13 13 13 13 13 13 13 13 13 13 13 13 14 14 14 14 14 14 14 14 14
14 14 14 14 14 14 13 13 13 13 13 13 13 13 13 13 13 13 13 13 13 13 13 13 13 13 13 13 13 13 13 13 13 13 13 13 13 14 14 14 14 14 14
14 14 14 13 14 14 14 14 13 13 13 13 13 13 13 13 13 13 13 13 13 13 13 13 13 13 13 13 13 13 13 13 13 13 13 13 13 13 13 13 13 13 13
14 14 14 14 14 14 14 14 13 13 13 13 13 13 13 13 13 13 13 13 13 13 13 13 13 13 13 13 13 13 12 12 13 13 13 13 13 13 13 13 13 13 13
14 14 14 14 14 14 14 14 14 13 13 13 13 13 13 13 13 13 13 13 13 13 12 12 12 12 13 13 13 12 12 12 12 12 12 12 12 13 13 13 13 13 13
14 14 14 14 14 14 14 13 13 13 13 13 13 13 13 13 13 13 13 13 12 12 12 12 12 12 12 12 12 12 12 12 12 12 12 12 12 12 12 13 13 13 13
Wind_Speed
3 3 2 1 2 2 1 2 3 3 3 3 3 3 3 3 4 4 6 9 9 8 7 7 7 8 9 9 9 9 10 10 10 11 10 11 11 10 10 10 10 10 9
2 3 3 2 2 2 2 2 3 2 2 2 3 3 4 3 4 4 6 8 10 10 9 8 8 10 10 10 10 11 11 11 11 11 11 11 11 10 10 10 9 9 8
3 2 3 3 2 2 2 2 3 2 2 2 3 5 4 4 3 4 5 7 8 10 10 10 9 10 11 11 11 12 12 12 12 12 12 12 11 11 10 9 9 9 8
5 2 3 3 3 2 2 2 1 2 2 2 3 4 4 3 4 4 4 5 6 8 9 10 10 11 11 11 11 12 13 13 13 13 13 12 12 11 11 10 9 9 9
7 3 2 2 3 2 2 3 2 1 2 2 3 3 3 2 3 4 4 4 5 7 9 10 11 11 12 12 11 12 13 13 14 14 14 13 13 12 11 10 9 9 9
6 4 2 2 2 2 2 3 3 3 2 2 4 3 2 2 3 3 3 3 2 5 8 9 10 9 11 12 12 11 12 14 15 15 14 14 13 13 12 11 10 10 10
5 4 3 3 2 1 2 3 2 3 2 2 2 2 2 1 1 2 1 1 1 2 4 7 8 8 9 11 12 12 12 13 14 14 14 14 13 13 12 12 11 11 11
5 5 4 4 3 2 2 3 2 2 2 2 0 1 1 2 2 1 2 1 1 1 3 5 6 8 9 9 10 13 13 12 13 14 14 14 14 14 13 12 12 11 11
2 2 4 4 4 2 1 2 1 1 2 2 1 1 0 1 1 1 2 1 1 1 1 2 3 5 9 10 11 12 12 12 12 13 13 14 14 14 14 13 13 12 12
1 2 3 3 3 2 2 2 1 1 1 1 2 1 1 0 1 0 1 0 1 1 1 1 1 2 5 8 11 12 13 12 11 12 12 13 13 14 13 13 13 13 13
2 1 2 3 3 2 1 2 1 1 1 1 1 1 1 1 1 1 1 0 1 0 1 1 1 1 3 7 9 11 13 12 12 11 11 11 12 13 13 13 13 14 14
2 2 2 3 2 2 2 1 2 2 1 1 1 1 0 0 0 0 0 0 0 1 0 1 2 2 3 5 7 11 13 12 12 11 10 10 10 12 13 13 13 14 14
2 3 3 2 2 3 2 2 2 1 1 1 1 1 1 1 0 0 1 0 0 1 0 1 2 2 3 5 6 9 11 12 12 11 11 10 9 9 10 12 13 13 13
2 3 4 3 2 2 2 1 1 1 1 0 1 1 1 0 0 1 1 1 0 0 0 1 1 1 2 4 6 7 8 11 11 11 10 10 9 9 9 9 11 12 13
2 3 4 3 2 1 2 1 1 1 1 0 0 0 1 1 0 1 1 1 2 0 1 1 1 1 2 4 6 5 5 9 11 12 11 11 10 10 9 9 10 11 12
2 2 3 3 2 1 1 1 1 1 1 0 1 1 1 1 0 0 1 1 1 2 0 1 0 1 2 2 5 4 5 7 9 11 11 11 11 11 11 10 10 11 11
2 2 2 3 2 2 2 1 1 2 2 1 0 1 1 2 1 0 1 1 1 1 1 1 1 1 1 1 2 3 5 5 6 10 11 11 11 11 12 12 11 11 11
2 2 3 3 3 3 2 2 1 1 1 1 1 1 1 1 1 0 1 0 1 1 2 1 0 0 0 1 2 3 3 4 4 8 11 12 12 12 12 12 12 12 12
1 1 2 2 3 3 2 2 1 1 1 1 1 1 1 1 1 1 1 1 1 1 1 1 1 0 1 1 1 2 2 2 3 6 9 11 12 12 12 12 12 13 13
2 2 1 2 2 3 4 4 3 1 1 2 2 1 1 2 2 2 1 1 1 1 1 1 1 1 1 1 0 1 1 1 2 3 4 6 9 11 12 12 13 13 14
4 3 2 2 2 2 3 5 5 3 2 2 2 2 2 4 4 2 1 2 2 0 0 1 1 1 1 0 1 1 1 1 2 2 2 2 3 4 7 11 12 13 14
2 3 2 2 3 3 4 5 5 4 3 1 1 1 1 3 2 2 1 1 1 0 0 1 1 1 2 2 1 1 1 1 2 1 1 2 2 3 4 6 10 13 14
0 2 2 2 2 3 3 4 5 3 2 2 1 0 0 2 2 0 2 3 2 3 3 1 1 2 2 1 1 1 1 2 3 2 1 3 3 4 4 7 10 12 14
1 1 1 0 1 2 2 2 4 3 2 1 1 0 1 1 1 1 1 1 2 2 3 3 2 2 1 1 1 1 2 2 3 2 2 3 3 3 4 4 9 10 12
1 1 2 1 1 2 1 1 3 2 1 0 1 2 2 2 3 3 2 1 1 2 3 3 4 4 4 3 2 0 1 1 3 3 2 2 2 2 3 3 5 9 10
2 2 2 1 2 3 2 1 2 2 2 1 1 2 4 3 3 3 2 2 2 3 2 2 2 4 4 5 6 4 3 2 2 2 1 1 1 1 2 2 2 3 5
Wind_Direction
323 331 310 341 313 306 301 285 270 274 271 265 261 236 237 235 241 216 181 182 178 185 195 198 193 185 181 180 177 172 167 163 160 158 154 150 145 141 141 140 139 142 146
328 331 325 327 303 298 291 278 281 280 272 272 275 260 230 229 237 232 187 192 191 191 198 202 199 191 186 184 181 174 170 168 164 163 160 156 150 145 143 144 144 147 150
334 344 354 334 314 329 327 315 306 303 290 277 269 260 240 225 223 235 212 199 195 196 198 202 200 193 187 185 182 176 173 169 168 167 162 160 157 154 151 153 154 154 154
351 1 356 326 322 345 329 304 302 318 304 290 277 257 241 216 229 234 229 206 190 187 194 199 196 190 186 184 182 180 177 173 171 169 166 165 163 162 161 162 160 159 159
350 354 341 328 332 340 341 318 324 300 292 290 281 260 247 204 230 243 229 203 198 177 180 192 192 186 184 182 182 182 180 179 176 173 170 168 169 169 169 168 165 164 165
351 347 328 327 332 348 338 313 318 313 294 290 293 289 259 222 211 224 235 213 191 182 175 177 180 185 185 180 177 178 180 181 179 178 176 174 174 174 173 175 175 174 173
350 333 329 321 327 320 303 307 310 307 294 293 313 315 304 273 227 198 208 204 191 186 165 166 171 171 176 182 179 176 177 180 181 182 182 181 181 181 181 181 183 183 181
357 342 343 335 326 309 316 300 298 312 307 314 341 350 318 345 327 227 192 202 176 167 175 176 176 166 168 170 179 179 176 179 181 184 186 187 188 188 189 189 189 190 190
346 327 328 324 321 325 299 283 275 274 291 301 326 148 160 215 300 275 225 194 164 153 162 183 177 170 168 164 166 175 177 180 183 186 190 192 192 194 195 196 198 199 198
344 337 321 313 309 306 303 301 308 266 253 287 305 316 305 196 154 260 311 255 181 142 137 169 144 147 162 156 161 168 176 181 187 193 196 197 199 201 202 203 204 205 204
312 318 316 304 299 290 296 303 300 277 231 242 270 304 313 325 284 157 215 286 20 42 130 139 125 122 143 146 157 169 178 184 188 193 198 203 203 205 206 206 208 209 206
312 345 327 317 324 335 345 323 304 273 232 245 258 261 262 246 288 91 186 247 241 265 181 144 138 141 141 140 164 170 179 187 191 194 198 202 205 208 208 208 211 211 210
354 350 343 343 355 353 348 338 313 305 248 220 217 244 270 281 199 73 105 208 269 290 187 171 157 163 146 132 148 168 178 184 189 194 197 199 202 205 210 213 214 215 214
13 4 345 2 22 5 342 347 329 311 284 246 259 227 204 29 102 139 156 133 99 311 259 181 126 158 126 138 147 162 182 187 191 192 193 198 203 206 210 217 220 222 222
5 10 349 360 16 359 340 6 352 332 319 139 253 271 156 210 159 130 123 131 140 136 301 200 119 178 141 134 151 162 163 185 193 196 197 201 207 210 213 218 222 225 227
10 356 338 344 1 9 355 32 26 8 6 77 171 187 172 190 115 108 145 156 152 157 218 307 265 186 161 163 169 166 173 186 196 199 202 207 212 214 215 216 220 222 225
346 347 351 353 3 4 6 47 37 37 1 7 52 109 162 136 120 184 135 157 185 153 180 293 3 83 146 149 164 186 191 190 197 205 206 210 214 217 219 218 220 222 223
344 353 12 5 7 11 5 31 32 28 355 0 27 38 38 104 116 91 93 114 153 173 165 175 297 347 48 203 195 202 204 198 192 208 211 214 216 218 220 220 220 221 222
332 6 47 21 360 353 2 10 13 344 343 27 50 57 42 66 71 76 129 126 151 140 132 162 214 305 250 243 216 224 223 207 217 212 214 216 217 219 221 222 222 224 225
340 5 50 37 15 8 5 2 358 7 5 29 51 65 71 73 54 29 42 41 82 108 143 175 200 225 242 259 213 229 256 237 238 219 210 213 217 221 224 225 226 227 227
339 345 26 47 47 40 18 15 356 360 28 31 38 45 80 96 90 81 58 19 20 38 195 191 212 240 249 243 236 247 260 270 257 223 207 220 209 219 225 227 227 227 229
327 332 11 43 54 41 38 31 11 346 351 10 53 51 115 117 130 148 180 186 134 149 297 266 248 237 245 230 219 232 246 279 275 252 178 250 226 229 226 219 223 223 225
296 320 355 42 75 64 37 17 357 333 321 328 351 66 78 95 116 219 251 231 241 251 242 247 268 278 282 277 219 243 253 245 252 247 232 257 237 237 236 234 230 228 227
188 267 293 44 115 91 64 8 339 314 296 322 347 320 127 80 57 4 287 221 207 231 228 219 218 248 286 335 333 246 243 277 287 271 203 239 254 250 248 231 233 228 226
231 244 236 209 172 121 85 2 348 306 295 291 34 31 64 83 33 26 357 306 276 269 250 229 224 233 241 259 250 46 308 293 286 274 225 207 260 274 266 247 231 223 224
244 248 242 209 160 150 147 80 26 331 320 342 61 73 61 67 48 39 6 335 322 310 317 305 267 257 245 239 226 205 206 228 268 278 243 173 256 281 290 271 231 224 235
Height
1501 1501 1500 1500 1499 1499 1499 1499 1499 1499 1499 1500 1501 1503 1504 1505 1507 1508 1509 1511 1513 1514 1515 1517 1518 1520 1521 1523 1525 1526 1528 1530 1532 1533 1535 1537 1539 1541 1542 1544 1546 1548 1549
1500 1499 1499 1498 1498 1497 1497 1497 1497 1497 1497 1498 1499 1500 1501 1503 1504 1506 1507 1509 1511 1512 1514 1515 1517 1518 1520 1522 1524 1526 1527 1529 1531 1533 1535 1537 1539 1541 1543 1545 1547 1548 1550
1499 1498 1497 1496 1496 1496 1495 1495 1495 1495 1495 1496 1497 1498 1499 1500 1502 1503 1505 1506 1508 1510 1512 1513 1515 1517 1519 1521 1523 1525 1527 1529 1531 1533 1535 1537 1539 1541 1543 1545 1547 1548 1550
1497 1496 1495 1495 1494 1494 1494 1493 1493 1493 1494 1494 1495 1496 1497 1498 1500 1501 1502 1504 1506 1508 1510 1512 1514 1516 1517 1519 1522 1524 1526 1528 1530 1532 1534 1536 1538 1540 1542 1544 1546 1548 1550
1496 1495 1494 1493 1493 1492 1492 1492 1492 1492 1492 1493 1493 1494 1495 1496 1497 1499 1501 1502 1504 1506 1508 1510 1512 1514 1516 1518 1520 1522 1525 1527 1529 1531 1533 1535 1537 1540 1542 1544 1546 1547 1549
1494 1494 1493 1492 1491 1491 1490 1490 1490 1490 1491 1491 1492 1492 1493 1494 1495 1497 1498 1500 1502 1504 1506 1508 1510 1512 1514 1516 1519 1521 1523 1525 1527 1530 1532 1534 1536 1539 1541 1543 1545 1546 1548
1493 1492 1491 1491 1490 1490 1489 1489 1489 1489 1489 1490 1490 1490 1491 1492 1494 1495 1497 1498 1500 1502 1504 1506 1508 1510 1512 1515 1517 1519 1521 1524 1526 1528 1531 1533 1535 1537 1539 1541 1543 1545 1547
1492 1491 1490 1489 1489 1489 1488 1488 1488 1488 1488 1489 1490 1490 1491 1492 1492 1494 1495 1497 1498 1500 1502 1504 1507 1509 1511 1513 1515 1517 1520 1522 1524 1526 1529 1531 1533 1535 1537 1539 1541 1543 1545
1491 1490 1489 1488 1487 1487 1487 1487 1487 1487 1488 1488 1489 1490 1491 1491 1491 1493 1494 1496 1497 1499 1501 1503 1505 1507 1509 1511 1513 1515 1518 1520 1522 1525 1527 1529 1531 1533 1535 1537 1539 1541 1543
1490 1489 1488 1487 1486 1486 1486 1486 1486 1486 1487 1487 1488 1489 1490 1491 1491 1492 1494 1495 1496 1497 1499 1501 1503 1504 1507 1509 1511 1513 1515 1518 1520 1522 1525 1527 1529 1531 1533 1535 1537 1539 1540
1490 1489 1487 1486 1485 1485 1485 1485 1485 1485 1486 1486 1487 1488 1489 1490 1490 1491 1492 1494 1495 1496 1497 1499 1501 1502 1504 1506 1509 1511 1513 1515 1517 1520 1522 1524 1526 1528 1530 1532 1534 1536 1538
1490 1489 1487 1486 1485 1484 1484 1484 1484 1484 1485 1485 1486 1487 1488 1488 1489 1490 1491 1492 1493 1495 1495 1497 1499 1500 1502 1504 1506 1509 1511 1513 1515 1517 1519 1522 1523 1525 1528 1529 1531 1533 1535
1490 1489 1487 1486 1484 1483 1483 1483 1483 1483 1484 1484 1485 1485 1486 1487 1488 1489 1490 1491 1492 1493 1494 1496 1497 1499 1500 1502 1504 1507 1508 1510 1512 1514 1516 1518 1520 1522 1524 1526 1528 1530 1531
1490 1488 1487 1486 1484 1483 1482 1482 1482 1482 1483 1484 1484 1484 1485 1486 1487 1488 1490 1490 1491 1492 1493 1495 1496 1497 1499 1500 1502 1504 1506 1508 1510 1511 1513 1515 1517 1519 1521 1523 1524 1526 1528
1490 1489 1487 1486 1484 1483 1482 1481 1481 1482 1482 1483 1483 1484 1484 1485 1486 1487 1488 1489 1491 1491 1493 1494 1495 1496 1497 1498 1500 1502 1504 1505 1507 1509 1510 1512 1514 1516 1517 1519 1521 1522 1524
1490 1489 1487 1486 1485 1483 1482 1482 1481 1482 1482 1482 1483 1483 1484 1485 1485 1486 1487 1488 1490 1491 1491 1493 1493 1494 1495 1496 1498 1500 1501 1503 1504 1505 1507 1508 1510 1512 1514 1515 1517 1518 1520
1490 1489 1488 1486 1485 1484 1483 1482 1482 1482 1482 1482 1482 1483 1483 1484 1485 1485 1486 1487 1488 1490 1490 1491 1492 1493 1494 1495 1496 1497 1498 1500 1501 1502 1504 1505 1507 1508 1509 1511 1512 1514 1515
1490 1489 1488 1486 1485 1484 1483 1483 1482 1482 1482 1482 1482 1483 1483 1484 1484 1485 1486 1486 1487 1488 1489 1490 1491 1492 1492 1493 1494 1495 1496 1497 1498 1500 1500 1502 1503 1504 1505 1507 1508 1509 1510
1490 1489 1488 1486 1485 1484 1484 1483 1483 1482 1482 1482 1482 1482 1482 1483 1483 1484 1484 1485 1486 1487 1488 1489 1489 1490 1491 1492 1492 1493 1494 1495 1496 1497 1497 1498 1499 1500 1501 1502 1504 1505 1506
1489 1489 1487 1486 1485 1484 1483 1483 1483 1482 1482 1482 1482 1482 1482 1482 1483 1483 1484 1484 1485 1486 1487 1488 1488 1489 1490 1490 1491 1491 1492 1492 1493 1494 1494 1495 1496 1497 1497 1498 1499 1500 1501
1488 1488 1487 1486 1484 1483 1483 1483 1482 1482 1482 1482 1482 1482 1482 1482 1482 1483 1483 1484 1484 1485 1485 1486 1487 1487 1488 1488 1489 1489 1489 1490 1490 1491 1491 1492 1492 1493 1493 1494 1495 1496 1496
1487 1487 1486 1485 1484 1483 1483 1482 1482 1482 1482 1481 1481 1481 1481 1481 1482 1482 1482 1483 1483 1484 1484 1485 1485 1486 1486 1486 1487 1487 1487 1487 1487 1488 1488 1489 1489 1489 1490 1490 1491 1492 1492
1486 1486 1485 1485 1484 1483 1482 1482 1481 1481 1481 1481 1481 1481 1481 1481 1481 1481 1481 1482 1482 1482 1483 1484 1483 1484 1484 1484 1485 1484 1485 1485 1485 1485 1485 1485 1486 1485 1486 1486 1487 1487 1488
1485 1485 1484 1484 1483 1483 1482 1481 1481 1480 1480 1480 1480 1480 1480 1480 1480 1480 1480 1480 1481 1481 1481 1482 1482 1482 1482 1482 1482 1482 1482 1482 1482 1483 1483 1482 1482 1482 1482 1483 1483 1483 1484
1484 1484 1484 1483 1483 1482 1482 1481 1480 1480 1480 1480 1480 1480 1480 1479 1479 1479 1479 1479 1480 1480 1480 1480 1480 1480 1480 1480 1480 1480 1480 1480 1479 1480 1480 1480 1479 1479 1479 1479 1479 1479 1479
1482 1482 1482 1482 1482 1481 1481 1480 1480 1479 1479 1479 1479 1479 1479 1479 1478 1478 1478 1478 1478 1478 1478 1478 1478 1478 1478 1478 1478 1478 1478 1477 1477 1477 1477 1477 1477 1476 1475 1475 1475 1475 1475